NOAA 16 DEB, 41400

Orbit data source: Space-Track

NOAA 16 DEB, 41400 is space debris in SSO originally from a launch on Thu, 21 Sep 2000 UTC launched from the Air Force Western Test Range (AFWTR). Debris objects in space refer to the collection of defunct objects orbiting the Earth. Examples of debris include non-operational satellites, rocket bodies, and fragments generated from explosions, collisions, or faulty payload assembly.

Loading next visibility...
Identifier
41400, 2000-055KD
Orbit
SSO
Country
Flag of USUS
Related business
Manufacturer
Unknown
Mission
Spacecraft
Bus & Motor
Unknown
Mass
Unknown
Launch date (UTC)
2000-09-21 (25 years ago)
Launch vehicle
Unknown
Launch site
Air Force Western Test Range (AFWTR)
Object type
Payload
Rocket body
Debris
Shape & HBR
Unknown shape, 0.1 m
Radar Cross Section
Small (<0.1 m²)

Expand to show TLE details & history
Last TLE update: 2 days ago

TLE from 2 days ago
0 NOAA 16 DEB
1 41400U 00055KD  25352.19928809  .00004304  00000-0  15493-2 0  9997
2 41400  98.7202  83.9569 0015821  72.7738 287.5176 14.34182813506563
Epoch: 2025-12-18T04:46Z
TLE epoch observation values (Epoch: 2025-12-18T04:46:58.490Z)
Latitude
-0.00011°
Longitude
-74.84502°
Altitude
777.325 km
Speed
7.467 km/s
True Right ascension
05h 35m 49s
True Declination
0° 00' 00"
Sunlit
Object was in full shadow at epoch
Visualization orbit readout
Latitude
Unknown
Longitude
Unknown
Altitude
Unknown
Speed
Unknown
Apparent Right ascension
Unknown
Apparent Declination
Unknown
Sunlit
N/A
Visualization observer readout
Local Sidereal Time
11:25:18
Azimuth
Unknown
Elevation
Unknown
Doppler factor
Unknown
Orbital elements
Apogee altitude
786.24 km
Perigee altitude
763.607 km
Semi-major axis
7,153.061 km
Eccentricity
0.00158
Inclination
98.7202°
RAAN
83.9569°
Arg. of periapsis
72.7738°
True anomaly
287.34461°
Mean anomaly
287.5176°
Eccentric anomaly
287.43112°
Mean motion
3.58761 °/min
Orbital period
100.35 mins
BSTAR
0.0015493
Loading maneuver chart data...
Computing Atmospheric mass density...
Loading historical data...
Loading historical data...
Loading historical data...
Loading historical data...
Loading historical data...
Loading historical data...
Loading historical data...

Documentation

Showing up to 5 results
|